GLOBALSTAR M096 [+]

Last updated on Fri Dec 29 2023 00:02:57 GMT+0000 (Coordinated Universal Time)

1 39075U 13005D 23362.16399700 -.00000080 00000+0 13143-3 0 9997 2 39075 52.0086 65.2898 0000842 136.8506 223.2427 12.62267278503821
UTC large
Height (km)
Speed (km/s)
/
Latitude / Longitude
Inclination (degrees)
Orbital Period (minutes)
Azimuth
Elevation
Range (km)
Doppler Factor

Next 0 passes for location: London (51.5072 / 0.1276)

Sorry there are no passes over London.